| time (UTC) | temp C | wind direction | speed KPH | gust KPH | rain 1hr cm | rain 24hr cm | rain mn cm | humidity % | barometer mb |
| 20260905061053 | 25 | 0 | 0.0 | 0.0 | 0.00 | 0.00 | 0.00 | 86 | 990.3 |
| 20260905055553 | 25 | 0 | 0.0 | 0.0 | 0.00 | 0.00 | 0.00 | 86 | 990.4 |
| 20260905054051 | 25 | 0 | 0.0 | 0.0 | 0.00 | 0.00 | 0.00 | 86 | 990.7 |
| 20260905052551 | 26 | 0 | 0.0 | 0.0 | 0.00 | 0.00 | 0.00 | 85 | 991.0 |
| 20260905052434 | 26 | 0 | 0.0 | 0.0 | 0.00 | 0.00 | 0.00 | 84 | 991.3 |
| 20260905045550 | 26 | 0 | 0.0 | 0.0 | 0.00 | 0.00 | 0.00 | 84 | 991.4 |
| 20260905044057 | 26 | 0 | 0.0 | 0.0 | 0.00 | 0.00 | 0.00 | 83 | 991.5 |
| 20260905042553 | 26 | 0 | 0.0 | 0.0 | 0.00 | 0.00 | 0.00 | 82 | 991.7 |
| 20260905041050 | 26 | 0 | 0.0 | 0.0 | 0.00 | 0.00 | 0.00 | 82 | 991.7 |
| 20260905035548 | 26 | 0 | 0.0 | 0.0 | 0.00 | 0.00 | 0.00 | 80 | 991.7 |
| 20260905034049 | 26 | 0 | 0.0 | 0.0 | 0.00 | 0.00 | 0.00 | 80 | 991.8 |
| 20260905032550 | 26 | 0 | 0.0 | 0.0 | 0.00 | 0.00 | 0.00 | 79 | 991.6 |
| 20260905031050 | 26 | 0 | 0.0 | 0.0 | 0.00 | 0.00 | 0.00 | 77 | 991.6 |
| 20260905025550 | 26 | 0 | 0.0 | 0.0 | 0.00 | 0.00 | 0.00 | 77 | 991.5 |
| 20260905024051 | 26 | 0 | 0.0 | 0.0 | 0.00 | 0.00 | 0.00 | 77 | 991.5 |
| 20260905023250 | 26 | 0 | 0.0 | 0.0 | 0.00 | 0.00 | 0.00 | 76 | 991.5 |
| 20260905021048 | 26 | 0 | 0.0 | 0.0 | 0.00 | 0.00 | 0.00 | 75 | 991.4 |
| 20260905015546 | 27 | 0 | 0.0 | 0.0 | 0.00 | 0.00 | 0.00 | 75 | 991.6 |
| 20260905014045 | 27 | 0 | 0.0 | 0.0 | 0.00 | 0.00 | 0.00 | 74 | 991.7 |
| 20260905012545 | 27 | 0 | 0.0 | 0.0 | 0.00 | 0.00 | 0.00 | 73 | 991.6 |
| 20260905011046 | 27 | 0 | 0.0 | 0.0 | 0.00 | 0.00 | 0.00 | 73 | 991.0 |
| 20260905005545 | 27 | 0 | 0.0 | 0.0 | 0.00 | 0.00 | 0.00 | 71 | 989.5 |
| 20260905004744 | 27 | 0 | 0.0 | 0.0 | 0.00 | 0.00 | 0.00 | 70 | 989.1 |
| 20260905002543 | 28 | 0 | 0.0 | 0.0 | 0.00 | 0.00 | 0.00 | 69 | 989.3 |
| 20260905001043 | 28 | 0 | 0.0 | 0.0 | 0.00 | 0.00 | 0.00 | 68 | 989.5 |
| 20260904235543 | 28 | 0 | 0.0 | 0.0 | 0.00 | 0.00 | 0.00 | 71 | 989.8 |
| 20260904234043 | 28 | 0 | 0.0 | 0.0 | 0.00 | 0.00 | 0.00 | 73 | 990.0 |
| 20260904232541 | 29 | 0 | 0.0 | 0.0 | 0.00 | 0.00 | 0.00 | 74 | 990.3 |
| 20260904231041 | 30 | 0 | 0.0 | 0.0 | 0.00 | 0.00 | 0.00 | 72 | 990.1 |
| 20260904225540 | 30 | 0 | 0.0 | 0.0 | 0.00 | 0.00 | 0.00 | 75 | 989.6 |
| 20260904224039 | 30 | 0 | 0.0 | 0.0 | 0.00 | 0.00 | 0.00 | 75 | 989.4 |
| 20260904222540 | 31 | 0 | 0.0 | 0.0 | 0.00 | 0.00 | 0.00 | 74 | 989.7 |
| 20260904221039 | 31 | 0 | 0.0 | 0.0 | 0.00 | 0.00 | 0.00 | 75 | 989.6 |
| 20260904215537 | 31 | 0 | 0.0 | 0.0 | 0.00 | 0.00 | 0.00 | 74 | 989.6 |
| 20260904214035 | 31 | 0 | 0.0 | 0.0 | 0.00 | 0.00 | 0.00 | 72 | 989.7 |
| 20260904212534 | 31 | 0 | 0.0 | 0.0 | 0.00 | 0.00 | 0.00 | 71 | 989.6 |
| 20260904211033 | 32 | 0 | 0.0 | 0.0 | 0.00 | 0.00 | 0.00 | 70 | 989.6 |
| 20260904205533 | 32 | 0 | 0.0 | 0.0 | 0.00 | 0.00 | 0.00 | 68 | 989.5 |
| 20260904204031 | 33 | 0 | 0.0 | 0.0 | 0.00 | 0.00 | 0.00 | 63 | 989.4 |
| 20260904203225 | 34 | 0 | 0.0 | 0.0 | 0.00 | 0.00 | 0.00 | 57 | 989.5 |
| 20260904201727 | 35 | 0 | 0.0 | 0.0 | 0.00 | 0.00 | 0.00 | 53 | 989.7 |
| 20260904200226 | 36 | 0 | 0.0 | 0.0 | 0.00 | 0.00 | 0.00 | 60 | 990.3 |
| 20260904194025 | 36 | 0 | 0.0 | 0.0 | 0.00 | 0.00 | 0.00 | 57 | 990.4 |
| 20260904192523 | 36 | 0 | 0.0 | 0.0 | 0.00 | 0.00 | 0.00 | 54 | 990.6 |
| 20260904191023 | 36 | 0 | 0.0 | 0.0 | 0.00 | 0.00 | 0.00 | 55 | 990.4 |
| 20260904190224 | 37 | 0 | 0.0 | 0.0 | 0.00 | 0.00 | 0.00 | 52 | 990.8 |
| 20260904184712 | 37 | 0 | 0.0 | 0.0 | 0.00 | 0.00 | 0.00 | 53 | 991.1 |
| 20260904182523 | 37 | 0 | 0.0 | 0.0 | 0.00 | 0.00 | 0.00 | 51 | 991.3 |
| 20260904181022 | 37 | 0 | 0.0 | 0.0 | 0.00 | 0.00 | 0.00 | 52 | 991.4 |
| 20260904180216 | 37 | 0 | 0.0 | 0.0 | 0.00 | 0.00 | 0.00 | 55 | 991.6 |
| 20260904174020 | 37 | 0 | 0.0 | 0.0 | 0.00 | 0.00 | 0.00 | 53 | 991.8 |
| 20260904172521 | 37 | 0 | 0.0 | 0.0 | 0.00 | 0.00 | 0.00 | 54 | 991.9 |
| 20260904171019 | 37 | 0 | 0.0 | 0.0 | 0.00 | 0.00 | 0.00 | 56 | 991.9 |
| 20260904165513 | 37 | 0 | 0.0 | 0.0 | 0.00 | 0.00 | 0.00 | 58 | 992.0 |
| 20260904164014 | 36 | 0 | 0.0 | 0.0 | 0.00 | 0.00 | 0.00 | 56 | 992.2 |
| 20260904162502 | 36 | 0 | 0.0 | 0.0 | 0.00 | 0.00 | 0.00 | 62 | 992.5 |
| 20260904161001 | 35 | 0 | 0.0 | 0.0 | 0.00 | 0.00 | 0.00 | 62 | 992.8 |
| 20260904160147 | 34 | 0 | 0.0 | 0.0 | 0.00 | 0.00 | 0.00 | 64 | 992.8 |
| 20260904153954 | 34 | 0 | 0.0 | 0.0 | 0.00 | 0.00 | 0.00 | 68 | 992.9 |
| 20260904152454 | 33 | 0 | 0.0 | 0.0 | 0.00 | 0.00 | 0.00 | 67 | 992.9 |
| 20260904150954 | 33 | 0 | 0.0 | 0.0 | 0.00 | 0.00 | 0.00 | 70 | 992.9 |
| 20260904145455 | 32 | 0 | 0.0 | 0.0 | 0.00 | 0.00 | 0.00 | 72 | 993.0 |
| 20260904143952 | 31 | 0 | 0.0 | 0.0 | 0.00 | 0.00 | 0.00 | 75 | 993.0 |
| 20260904143150 | 30 | 0 | 0.0 | 0.0 | 0.00 | 0.00 | 0.00 | 78 | 993.1 |
| 20260904140949 | 30 | 0 | 0.0 | 0.0 | 0.00 | 0.00 | 0.00 | 80 | 993.0 |
| 20260904135446 | 28 | 0 | 0.0 | 0.0 | 0.00 | 0.00 | 0.00 | 85 | 992.9 |
| 20260904134639 | 27 | 0 | 0.0 | 0.0 | 0.00 | 0.00 | 0.00 | 87 | 992.8 |
| 20260904133144 | 26 | 0 | 0.0 | 0.0 | 0.00 | 0.00 | 0.00 | 89 | 993.0 |
| 20260904130942 | 26 | 0 | 0.0 | 0.0 | 0.00 | 0.00 | 0.00 | 91 | 993.0 |
| 20260904125442 | 25 | 0 | 0.0 | 0.0 | 0.00 | 0.00 | 0.00 | 92 | 993.1 |
| 20260904124633 | 25 | 0 | 0.0 | 0.0 | 0.00 | 0.00 | 0.00 | 92 | 993.2 |
| 20260904122442 | 25 | 0 | 0.0 | 0.0 | 0.00 | 0.00 | 0.00 | 93 | 993.2 |
| 20260904120942 | 24 | 0 | 0.0 | 0.0 | 0.00 | 0.00 | 0.00 | 93 | 993.2 |
| 20260904115441 | 24 | 0 | 0.0 | 0.0 | 0.00 | 0.00 | 0.00 | 93 | 993.1 |
| 20260904114636 | 24 | 0 | 0.0 | 0.0 | 0.00 | 0.00 | 0.00 | 93 | 993.0 |
| 20260904112438 | 24 | 0 | 0.0 | 0.0 | 0.00 | 0.00 | 0.00 | 92 | 993.0 |
| 20260904110938 | 24 | 0 | 0.0 | 0.0 | 0.00 | 0.00 | 0.00 | 92 | 992.9 |
| 20260904105436 | 24 | 0 | 0.0 | 0.0 | 0.00 | 0.00 | 0.00 | 91 | 992.7 |
| 20260904103934 | 24 | 0 | 0.0 | 0.0 | 0.00 | 0.00 | 0.00 | 91 | 992.7 |
| 20260904102430 | 25 | 0 | 0.0 | 0.0 | 0.00 | 0.00 | 0.00 | 91 | 992.8 |
| 20260904100927 | 25 | 0 | 0.0 | 0.0 | 0.00 | 0.00 | 0.00 | 90 | 992.8 |
| 20260904095428 | 25 | 0 | 0.0 | 0.0 | 0.00 | 0.00 | 0.00 | 90 | 992.7 |
| 20260904094627 | 25 | 0 | 0.0 | 0.0 | 0.00 | 0.00 | 0.00 | 89 | 992.6 |
| 20260904092427 | 25 | 0 | 0.0 | 0.0 | 0.00 | 0.00 | 0.00 | 89 | 992.6 |
| 20260904090925 | 25 | 0 | 0.0 | 0.0 | 0.00 | 0.00 | 0.00 | 89 | 992.6 |
| 20260904090122 | 25 | 0 | 0.0 | 0.0 | 0.00 | 0.00 | 0.00 | 88 | 992.4 |
| 20260904083926 | 25 | 0 | 0.0 | 0.0 | 0.00 | 0.00 | 0.00 | 88 | 992.2 |
| 20260904082431 | 25 | 0 | 0.0 | 0.0 | 0.00 | 0.00 | 0.00 | 88 | 992.0 |
| 20260904080925 | 25 | 0 | 0.0 | 0.0 | 0.00 | 0.00 | 0.00 | 88 | 992.0 |
| 20260904075426 | 25 | 0 | 0.0 | 0.0 | 0.00 | 0.00 | 0.00 | 88 | 992.2 |
| 20260904073925 | 25 | 0 | 0.0 | 0.0 | 0.00 | 0.00 | 0.00 | 88 | 992.1 |
| 20260904072426 | 26 | 0 | 0.0 | 0.0 | 0.00 | 0.00 | 0.00 | 87 | 992.0 |
| 20260904070924 | 26 | 0 | 0.0 | 0.0 | 0.00 | 0.00 | 0.00 | 87 | 992.1 |
| 20260904070112 | 26 | 0 | 0.0 | 0.0 | 0.00 | 0.00 | 0.00 | 86 | 992.3 |
| 20260904063922 | 26 | 0 | 0.0 | 0.0 | 0.00 | 0.00 | 0.00 | 86 | 992.5 |
| 20260904062421 | 26 | 0 | 0.0 | 0.0 | 0.00 | 0.00 | 0.00 | 85 | 992.8 |